Location: Highland Meadows Observing Site
(48.4428°N, 114.5461°W)
Time: 12:42:27
(UTC-06:00)

Gurwin Techsat 1B - Visible Passes

Search period start: 27 July 2017 00:00
Search period end: 06 August 2017 00:00
Orbit: 813 x 813 km, 98.6° (Epoch: 26 July)

Date Brightness Start Highest point End Pass type
(mag) Time Alt. Az. Time Alt. Az. Time Alt. Az.
27 Jul 10.6 02:23:55 10° NE 02:27:30 18° E 02:30:15 13° SE visible
27 Jul 8.6 04:02:41 10° N 04:08:01 73° WNW 04:11:26 23° SSW visible
28 Jul 11.0 02:02:44 10° ENE 02:04:20 11° E 02:05:56 10° ESE visible
28 Jul 8.7 03:39:51 10° NNE 03:45:12 75° ESE 03:48:18 26° S visible
28 Jul 10.3 05:20:50 10° NNW 05:24:35 20° WNW 05:28:20 10° WSW visible
29 Jul 9.2 03:17:09 10° NNE 03:22:19 49° E 03:25:08 25° SSE visible
29 Jul 9.8 04:57:32 10° N 05:02:02 28° WNW 05:06:20 11° WSW visible
30 Jul 9.9 02:54:36 10° NNE 02:59:22 32° E 03:01:59 21° SE visible
30 Jul 9.3 04:34:25 10° N 04:39:25 41° WNW 04:43:11 17° SW visible
31 Jul 10.4 02:32:19 10° NE 02:36:20 21° E 02:38:49 16° SE visible
31 Jul 8.8 04:11:26 10° N 04:16:43 62° WNW 04:20:01 23° SW visible
01 Aug 10.9 02:10:35 10° ENE 02:13:12 14° E 02:15:39 10° ESE visible
01 Aug 8.6 03:48:34 10° NNE 03:53:56 87° ESE 03:56:52 28° SSW visible
01 Aug 10.4 05:29:49 10° NNW 05:33:12 17° NW 05:36:34 10° W visible
02 Aug 9.0 03:25:49 10° NNE 03:31:05 58° E 03:33:42 29° SSE visible
02 Aug 10.0 05:06:26 10° N 05:10:41 25° WNW 05:14:54 10° WSW visible
03 Aug 9.6 03:03:12 10° NNE 03:08:10 38° E 03:10:32 25° SE visible
03 Aug 9.5 04:43:15 10° N 04:48:05 36° WNW 04:51:45 16° WSW visible
04 Aug 10.2 02:40:48 10° NE 02:45:09 25° E 02:47:23 19° SE visible
04 Aug 8.9 04:20:13 10° N 04:25:24 53° WNW 04:28:35 23° SW visible
05 Aug 10.7 02:18:46 10° NE 02:22:04 16° E 02:24:13 13° ESE visible
05 Aug 8.6 03:57:18 10° NNE 04:02:39 80° WNW 04:05:25 29° SSW visible
05 Aug 10.6 05:38:52 10° NNW 05:41:47 15° NW 05:44:42 10° W visible
